Skip Page Navigation
NASA JPL Caltech
NASA Logo - Jet Propulsion Laboratory + View the NASA Portal
+ Near-Earth Object (NEO) Program
Search JPL
JPL Home Earth Solar System Stars & Galaxies Technology
JPL Solar System Dynamics
BODIES ORBITS EPHEMERIDES TOOLS PHYSICAL DATA DISCOVERY FAQ SITE MAP
JPL Small-Body Database Browser
Search: [ help ]  
42930 (1999 TM11)
Classification: Main-belt Asteroid          SPK-ID: 2042930
Ephemeris | Orbit Diagram | Orbital Elements | Physical Parameters | Discovery Circumstances ]

[ show orbit diagram ]
Orbital Elements at Epoch 2457000.5 (2014-Dec-09.0) TDB
Reference: JPL 6 (heliocentric ecliptic J2000)
 Element Value Uncertainty (1-sigma)   Units 
e .2177923541599043 7.2246e-08  
a 2.292681034633093 2.0698e-08 AU
q 1.793352634762587 1.6807e-07 AU
i 24.47920492861385 8.2951e-06 deg
node 109.090262293448 2.2621e-05 deg
peri 136.4134546699162 3.2151e-05 deg
M 236.6512748592369 2.6284e-05 deg
tp 2457434.956249736790
(2016-Feb-16.45624974)
9.6019e-05 JED
period 1267.984324335409
3.47
1.717e-05
4.701e-08
d
yr
n .2839151818289927 3.8446e-09 deg/d
Q 2.792009434503599 2.5205e-08 AU
  Orbit Determination Parameters
   # obs. used (total)      543  
   data-arc span      6035 days (16.52 yr)  
   first obs. used      1998-04-22  
   last obs. used      2014-10-30  
   planetary ephem.      DE431  
   SB-pert. ephem.      SB431-BIG16  
   condition code      0  
   fit RMS      .58215  
   data source      ORB  
   producer      Otto Matic  
   solution date      2014-Nov-10 14:21:19  

Additional Information
 Earth MOID = .828657 AU 
 T_jup = 3.449 
[ show covariance matrix ]

Ephemeris | Orbit Diagram | Orbital Elements | Physical Parameters | Discovery Circumstances ]

Physical Parameter Table
Parameter Symbol Value Units Sigma Reference Notes
absolute magnitude H 13.9 mag n/a MPO279942  

42930 (1999 TM11)          Discovered 1999-Oct-06 by McNaught, R. H. at Siding Spring (413)
Reference: 20020624/Numbers.arcLast Updated: 2004-04-19

Alternate Designations
 1999 TM11 = 1998 HL4 
Ephemeris | Orbit Diagram | Orbital Elements | Physical Parameters | Discovery Circumstances ]
ABOUT SSD CREDITS/AWARDS PRIVACY/COPYRIGHT GLOSSARY LINKS
FirstGov 2014-Dec-21 04:04 UT
(server date/time)  
NASA Home Page
Site Manager:   Donald K. Yeomans
Webmaster  Alan B. Chamberlin